Location: ????????
(38.4362°N, 22.8767°E)
Time: 13:34:23
(UTC+00:00)

FENGYUN 1C DEB - Pass Details

Date: 18 October 2025
Orbit: 841 x 1273 km, 99.2° (Epoch: 16 November)

Event Time Altitude Azimuth Distance (km) Brightness Sun altitude
Rises 02:20:03 0° 25° (NNE) 3,406 ? -28.1°
Reaches altitude 10° 02:22:38 10° 35° (NE) 2,479 ? -27.7°
Maximum altitude 02:27:28 32° 98° (E) 1,459 ? -26.7°
Drops below altitude 10° 02:32:32 10° 160° (SSE) 2,600 ? -25.7°
Sets 02:35:17 0° 170° (S) 3,598 ? -25.2°
